Flag for Canada Weather past 2 weeks in Delta, British Columbia, Canada

Now
43 °F

High level clouds.


Feels Like: 43 °F
Forecast: 42 / 54 °F
Wind: No wind

Location: Vancouver International Air-Port

Current Time: Jan 26, 2015 at 1:35:54 AM

Latest Report: Jan 26, 2015 at 1:00 AM


Visibility: 20 mi

Pressure: 29.98 "Hg

Humidity: 100%

Dew point: 43 °F

Location of DeltaLocation

Historic Weather in Delta — Graph

°F

Delta temperature yesterday

Maximum temperature yesterday: 57 °F (at 1:00 PM)
Minimum temperature yesterday: 43 °F (at 10:00 PM)
Average temperature yesterday: 50 °F

Past Weeks' High & Low Weather Summary

 TemperatureHumidityPressure
High57 °F (Jan 25, 1:00 PM)100% (Jan 11, 12:00 AM)30.50 "Hg (Jan 11, 12:00 AM)
Low28 °F (Jan 14, 3:00 AM)62% (Jan 16, 3:00 PM)29.46 "Hg (Jan 18, 1:00 AM)
Average44 °F92%30.20 "Hg
* Reported Midnight between Jan 10 and Jan 11 — Midnight between Jan 25 and Jan 26, Delta, Weather by CustomWeather, © 2014

Note: Actual official high and low records may vary slightly from our data, if they occured in-between our weather recording intervals... More about our weather records

Advertising

Delta weather history for previous 24 hours

 ConditionsComfort  
Time TempWeatherWind HumidityBarometerVisibility
12:00 AM
Jan 26
41 °FFog.2 mph100%30.00 "Hg20 mi
11:00 PM
Jan 25
43 °FQuite cool.5 mph100%30.01 "Hg20 mi
10:00 PM43 °FPassing clouds.6 mph93%30.03 "Hg20 mi
9:00 PM45 °FPassing clouds.No wind93%30.04 "Hg20 mi
8:00 PM45 °FPassing clouds.2 mph93%30.05 "Hg20 mi
7:00 PM46 °FPassing clouds.3 mph93%30.07 "Hg20 mi
6:00 PM46 °FPartly cloudy.3 mph93%30.08 "Hg20 mi
5:00 PM48 °FPartly cloudy.2 mph100%30.08 "Hg20 mi
4:00 PM52 °FMostly cloudy.3 mph94%30.10 "Hg20 mi
3:00 PM54 °FMostly cloudy.6 mph94%30.11 "Hg20 mi
2:00 PM54 °FBroken clouds.7 mph94%30.13 "Hg20 mi
1:00 PM57 °FMostly cloudy.5 mph88%30.15 "Hg20 mi
12:00 PM55 °FMostly cloudy.6 mph88%30.17 "Hg20 mi
11:00 AM55 °FMostly cloudy.7 mph88%30.19 "Hg20 mi
10:00 AM54 °FPartly sunny.9 mph94%30.18 "Hg20 mi
9:00 AM52 °FPartly sunny.9 mph100%30.17 "Hg20 mi
8:00 AM52 °FPartly sunny.8 mph94%30.18 "Hg20 mi
7:00 AM50 °FMostly cloudy.10 mph100%30.18 "Hg15 mi
6:00 AM50 °FMostly cloudy.8 mph100%30.19 "Hg15 mi
5:00 AM50 °FMostly cloudy.9 mph100%30.19 "Hg15 mi
4:00 AM50 °FOvercast.9 mph100%30.19 "Hg15 mi
3:00 AM52 °FPassing clouds.9 mph94%30.19 "Hg15 mi
2:00 AM52 °FMostly cloudy.12 mph94%30.19 "Hg8 mi
1:00 AM52 °FMostly cloudy.10 mph94%30.19 "Hg8 mi
Weather by CustomWeather, © 2014

See weather overviewHow to use our weather pages